Year,Month,Day,Hour,Minute,Value (Times are PST for temperature in C)
2016,08,21,00,00,19.10
2016,08,21,00,01,19.00
2016,08,21,00,02,19.10
2016,08,21,00,03,19.00
2016,08,21,00,04,19.00
2016,08,21,00,05,19.00
2016,08,21,00,06,19.10
2016,08,21,00,07,19.10
2016,08,21,00,08,19.10
2016,08,21,00,09,19.10
2016,08,21,00,10,19.10
2016,08,21,00,11,19.10
2016,08,21,00,12,19.10
2016,08,21,00,13,19.10
2016,08,21,00,14,19.10
2016,08,21,00,15,19.10
2016,08,21,00,16,19.10
2016,08,21,00,17,19.10
2016,08,21,00,18,19.10
2016,08,21,00,19,19.00
2016,08,21,00,20,19.00
2016,08,21,00,21,19.00
2016,08,21,00,22,18.90
2016,08,21,00,23,18.90
2016,08,21,00,24,18.80
2016,08,21,00,25,18.80
2016,08,21,00,26,18.70
2016,08,21,00,27,18.60
2016,08,21,00,28,18.50
2016,08,21,00,29,18.50
2016,08,21,00,30,18.40
2016,08,21,00,31,18.40
2016,08,21,00,32,18.40
2016,08,21,00,33,18.50
2016,08,21,00,34,18.50
2016,08,21,00,35,18.50
2016,08,21,00,36,18.50
2016,08,21,00,37,18.50
2016,08,21,00,38,18.50
2016,08,21,00,39,18.50
2016,08,21,00,40,18.50
2016,08,21,00,41,18.60
2016,08,21,00,42,18.60
2016,08,21,00,43,18.60
2016,08,21,00,44,18.60
2016,08,21,00,45,18.60
2016,08,21,00,46,18.60
2016,08,21,00,47,18.60
2016,08,21,00,48,18.60
2016,08,21,00,49,18.60
2016,08,21,00,50,18.60
2016,08,21,00,51,18.60
2016,08,21,00,52,18.60
2016,08,21,00,53,18.60
2016,08,21,00,54,18.60
2016,08,21,00,55,18.60
2016,08,21,00,56,18.60
2016,08,21,00,57,18.60
2016,08,21,00,58,18.60
2016,08,21,00,59,18.60
2016,08,21,01,00,18.60
2016,08,21,01,01,18.50
2016,08,21,01,02,18.50
2016,08,21,01,03,18.50
2016,08,21,01,04,18.40
2016,08,21,01,05,18.40
2016,08,21,01,06,18.40
2016,08,21,01,07,18.30
2016,08,21,01,08,18.30
2016,08,21,01,09,18.30
2016,08,21,01,10,18.30
2016,08,21,01,11,18.30
2016,08,21,01,12,18.20
2016,08,21,01,13,18.20
2016,08,21,01,14,18.10
2016,08,21,01,15,18.10
2016,08,21,01,16,18.10
2016,08,21,01,17,18.00
2016,08,21,01,18,18.00
2016,08,21,01,19,17.90
2016,08,21,01,20,17.80
2016,08,21,01,21,17.80
2016,08,21,01,22,17.70
2016,08,21,01,23,17.50
2016,08,21,01,24,17.40
2016,08,21,01,25,17.30
2016,08,21,01,26,17.20
2016,08,21,01,27,17.10
2016,08,21,01,28,17.00
2016,08,21,01,29,16.90
2016,08,21,01,30,16.90
2016,08,21,01,31,16.80
2016,08,21,01,32,16.80
2016,08,21,01,33,16.80
2016,08,21,01,34,16.80
2016,08,21,01,35,16.70
2016,08,21,01,36,16.70
2016,08,21,01,37,16.70
2016,08,21,01,38,16.70
2016,08,21,01,39,16.60
2016,08,21,01,40,16.60
2016,08,21,01,41,16.60
2016,08,21,01,42,16.50
2016,08,21,01,43,16.50
2016,08,21,01,44,16.40
2016,08,21,01,45,16.40
2016,08,21,01,46,16.40
2016,08,21,01,47,16.40
2016,08,21,01,48,16.30
2016,08,21,01,49,16.30
2016,08,21,01,50,16.30
2016,08,21,01,51,16.30
2016,08,21,01,52,16.20
2016,08,21,01,53,16.20
2016,08,21,01,54,16.20
2016,08,21,01,55,16.20
2016,08,21,01,56,16.20
2016,08,21,01,57,16.10
2016,08,21,01,58,16.00
2016,08,21,01,59,16.00
2016,08,21,02,00,15.90
2016,08,21,02,01,15.90
2016,08,21,02,02,15.80
2016,08,21,02,03,15.80
2016,08,21,02,04,15.80
2016,08,21,02,05,15.80
2016,08,21,02,06,15.70
2016,08,21,02,07,15.70
2016,08,21,02,08,15.70
2016,08,21,02,09,15.70
2016,08,21,02,10,15.60
2016,08,21,02,11,15.60
2016,08,21,02,12,15.60
2016,08,21,02,13,15.50
2016,08,21,02,14,15.50
2016,08,21,02,15,15.50
2016,08,21,02,16,15.40
2016,08,21,02,17,15.40
2016,08,21,02,18,15.40
2016,08,21,02,19,15.40
2016,08,21,02,20,15.40
2016,08,21,02,21,15.40
2016,08,21,02,22,15.40
2016,08,21,02,23,15.30
2016,08,21,02,24,15.30
2016,08,21,02,25,15.30
2016,08,21,02,26,15.30
2016,08,21,02,27,15.30
2016,08,21,02,28,15.20
2016,08,21,02,29,15.20
2016,08,21,02,30,15.20
2016,08,21,02,31,15.20
2016,08,21,02,32,15.20
2016,08,21,02,33,15.10
2016,08,21,02,34,15.10
2016,08,21,02,35,15.10
2016,08,21,02,36,15.10
2016,08,21,02,37,15.10
2016,08,21,02,38,15.10
2016,08,21,02,39,15.10
2016,08,21,02,40,15.10
2016,08,21,02,41,15.10
2016,08,21,02,42,15.10
2016,08,21,02,43,15.10
2016,08,21,02,44,15.10
2016,08,21,02,45,15.10
2016,08,21,02,46,15.10
2016,08,21,02,47,15.10
2016,08,21,02,48,15.10
2016,08,21,02,49,15.10
2016,08,21,02,50,15.10
2016,08,21,02,51,15.10
2016,08,21,02,52,15.10
2016,08,21,02,53,15.10
2016,08,21,02,54,15.10
2016,08,21,02,55,15.20
2016,08,21,02,56,15.20
2016,08,21,02,57,15.20
2016,08,21,02,58,15.30
2016,08,21,02,59,15.30
2016,08,21,03,00,15.30
2016,08,21,03,01,15.30
2016,08,21,03,02,15.40
2016,08,21,03,03,15.40
2016,08,21,03,05,15.50
2016,08,21,03,06,15.50
2016,08,21,03,07,15.50
2016,08,21,03,08,15.60
2016,08,21,03,09,15.60
2016,08,21,03,10,15.60
2016,08,21,03,11,15.60
2016,08,21,03,12,15.70
2016,08,21,03,13,15.70
2016,08,21,03,14,15.70
2016,08,21,03,15,15.70
2016,08,21,03,16,15.70
2016,08,21,03,17,15.70
2016,08,21,03,18,15.70
2016,08,21,03,19,15.60
2016,08,21,03,20,15.60
2016,08,21,03,21,15.60
2016,08,21,03,22,15.60
2016,08,21,03,23,15.60
2016,08,21,03,24,15.60
2016,08,21,03,25,15.60
2016,08,21,03,26,15.60
2016,08,21,03,27,15.60
2016,08,21,03,28,15.60
2016,08,21,03,29,15.60
2016,08,21,03,30,15.70
2016,08,21,03,31,15.70
2016,08,21,03,32,15.70
2016,08,21,03,33,15.70
2016,08,21,03,34,15.70
2016,08,21,03,35,15.70
2016,08,21,03,36,15.70
2016,08,21,03,37,15.80
2016,08,21,03,38,15.80
2016,08,21,03,39,15.80
2016,08,21,03,40,15.80
2016,08,21,03,41,15.80
2016,08,21,03,42,15.80
2016,08,21,03,43,15.80
2016,08,21,03,44,15.80
2016,08,21,03,45,15.80
2016,08,21,03,46,15.80
2016,08,21,03,47,15.80
2016,08,21,03,48,15.80
2016,08,21,03,49,15.80
2016,08,21,03,50,15.80
2016,08,21,03,51,15.80
2016,08,21,03,52,15.80
2016,08,21,03,53,15.80
2016,08,21,03,54,15.80
2016,08,21,03,55,15.80
2016,08,21,03,56,15.80
2016,08,21,03,57,15.80
2016,08,21,03,58,15.80
2016,08,21,03,59,15.80
2016,08,21,04,00,15.80
2016,08,21,04,01,15.80
2016,08,21,04,02,15.80
2016,08,21,04,03,15.80
2016,08,21,04,04,15.80
2016,08,21,04,05,15.80
2016,08,21,04,06,15.70
2016,08,21,04,07,15.70
2016,08,21,04,08,15.70
2016,08,21,04,09,15.70
2016,08,21,04,10,15.70
2016,08,21,04,11,15.70
2016,08,21,04,12,15.70
2016,08,21,04,13,15.70
2016,08,21,04,14,15.70
2016,08,21,04,15,15.70
2016,08,21,04,16,15.70
2016,08,21,04,17,15.70
2016,08,21,04,18,15.70
2016,08,21,04,19,15.70
2016,08,21,04,20,15.70
2016,08,21,04,21,15.70
2016,08,21,04,22,15.70
2016,08,21,04,23,15.70
2016,08,21,04,24,15.70
2016,08,21,04,25,15.70
2016,08,21,04,26,15.60
2016,08,21,04,27,15.60
2016,08,21,04,28,15.60
2016,08,21,04,29,15.60
2016,08,21,04,30,15.60
2016,08,21,04,31,15.60
2016,08,21,04,32,15.60
2016,08,21,04,33,15.60
2016,08,21,04,34,15.50
2016,08,21,04,35,15.50
2016,08,21,04,36,15.50
2016,08,21,04,37,15.50
2016,08,21,04,38,15.50
2016,08,21,04,39,15.40
2016,08,21,04,40,15.40
2016,08,21,04,41,15.40
2016,08,21,04,42,15.40
2016,08,21,04,43,15.40
2016,08,21,04,44,15.40
2016,08,21,04,45,15.40
2016,08,21,04,46,15.40
2016,08,21,04,47,15.40
2016,08,21,04,48,15.30
2016,08,21,04,49,15.30
2016,08,21,04,50,15.30
2016,08,21,04,51,15.30
2016,08,21,04,52,15.30
2016,08,21,04,53,15.30
2016,08,21,04,54,15.30
2016,08,21,04,55,15.30
2016,08,21,04,56,15.20
2016,08,21,04,57,15.20
2016,08,21,04,58,15.20
2016,08,21,04,59,15.20
2016,08,21,05,00,15.20
2016,08,21,05,01,15.20
2016,08,21,05,02,15.10
2016,08,21,05,03,15.10
2016,08,21,05,04,15.10
2016,08,21,05,05,15.10
2016,08,21,05,06,15.00
2016,08,21,05,07,15.00
2016,08,21,05,08,15.00
2016,08,21,05,09,14.90
2016,08,21,05,10,14.90
2016,08,21,05,11,14.90
2016,08,21,05,12,14.80
2016,08,21,05,13,14.80
2016,08,21,05,14,14.80
2016,08,21,05,15,14.80
2016,08,21,05,16,14.70
2016,08,21,05,17,14.70
2016,08,21,05,18,14.70
2016,08,21,05,19,14.70
2016,08,21,05,20,14.70
2016,08,21,05,21,14.60
2016,08,21,05,22,14.60
2016,08,21,05,23,14.60
2016,08,21,05,24,14.60
2016,08,21,05,25,14.60
2016,08,21,05,26,14.50
2016,08,21,05,27,14.50
2016,08,21,05,28,14.50
2016,08,21,05,29,14.50
2016,08,21,05,30,14.50
2016,08,21,05,31,14.40
2016,08,21,05,32,14.40
2016,08,21,05,33,14.40
2016,08,21,05,34,14.40
2016,08,21,05,35,14.40
2016,08,21,05,36,14.40
2016,08,21,05,37,14.40
2016,08,21,05,38,14.40
2016,08,21,05,39,14.30
2016,08,21,05,40,14.30
2016,08,21,05,41,14.30
2016,08,21,05,42,14.30
2016,08,21,05,43,14.30
2016,08,21,05,44,14.20
2016,08,21,05,45,14.20
2016,08,21,05,46,14.20
2016,08,21,05,47,14.20
2016,08,21,05,48,14.20
2016,08,21,05,49,14.20
2016,08,21,05,50,14.20
2016,08,21,05,51,14.30
2016,08,21,05,52,14.30
2016,08,21,05,53,14.30
2016,08,21,05,54,14.20
2016,08,21,05,55,14.20
2016,08,21,05,56,14.20
2016,08,21,05,57,14.20
2016,08,21,05,58,14.20
2016,08,21,05,59,14.20
2016,08,21,06,00,14.20
2016,08,21,06,01,14.10
2016,08,21,06,02,14.10
2016,08,21,06,03,14.10
2016,08,21,06,04,14.10
2016,08,21,06,05,14.10
2016,08,21,06,06,14.10
2016,08,21,06,07,14.10
2016,08,21,06,08,14.10
2016,08,21,06,09,14.20
2016,08,21,06,10,14.20
2016,08,21,06,11,14.20
2016,08,21,06,12,14.20
2016,08,21,06,13,14.30
2016,08,21,06,14,14.30
2016,08,21,06,15,14.40
2016,08,21,06,16,14.50
2016,08,21,06,17,14.50
2016,08,21,06,18,14.60
2016,08,21,06,19,14.60
2016,08,21,06,20,14.70
2016,08,21,06,21,14.70
2016,08,21,06,22,14.80
2016,08,21,06,23,14.80
2016,08,21,06,24,14.80
2016,08,21,06,25,14.80
2016,08,21,06,26,14.80
2016,08,21,06,27,14.80
2016,08,21,06,28,14.80
2016,08,21,06,29,14.80
2016,08,21,06,30,14.80
2016,08,21,06,31,14.80
2016,08,21,06,32,14.80
2016,08,21,06,33,14.80
2016,08,21,06,34,14.80
2016,08,21,06,35,14.80
2016,08,21,06,36,14.80
2016,08,21,06,37,14.90
2016,08,21,06,38,14.90
2016,08,21,06,39,14.90
2016,08,21,06,40,14.90
2016,08,21,06,41,14.90
2016,08,21,06,42,14.90
2016,08,21,06,43,14.90
2016,08,21,06,44,14.90
2016,08,21,06,45,15.00
2016,08,21,06,46,15.00
2016,08,21,06,47,15.00
2016,08,21,06,48,15.00
2016,08,21,06,49,15.00
2016,08,21,06,50,15.10
2016,08,21,06,51,15.10
2016,08,21,06,52,15.10
2016,08,21,06,53,15.10
2016,08,21,06,54,15.20
2016,08,21,06,55,15.20
2016,08,21,06,56,15.30
2016,08,21,06,57,15.30
2016,08,21,06,58,15.40
2016,08,21,06,59,15.40
2016,08,21,07,00,15.50
2016,08,21,07,01,15.50
2016,08,21,07,02,15.60
2016,08,21,07,03,15.60
2016,08,21,07,04,15.60
2016,08,21,07,05,15.70
2016,08,21,07,06,15.70
2016,08,21,07,07,15.70
2016,08,21,07,08,15.70
2016,08,21,07,09,15.70
2016,08,21,07,10,15.80
2016,08,21,07,11,15.80
2016,08,21,07,12,15.80
2016,08,21,07,13,15.80
2016,08,21,07,14,15.80
2016,08,21,07,15,15.80
2016,08,21,07,16,15.80
2016,08,21,07,17,15.80
2016,08,21,07,18,15.80
2016,08,21,07,19,15.80
2016,08,21,07,20,15.80
2016,08,21,07,21,15.80
2016,08,21,07,22,15.80
2016,08,21,07,23,15.80
2016,08,21,07,24,15.90
2016,08,21,07,25,15.90
2016,08,21,07,26,15.90
2016,08,21,07,27,15.90
2016,08,21,07,28,15.90
2016,08,21,07,29,16.00
2016,08,21,07,30,16.00
2016,08,21,07,31,16.00
2016,08,21,07,32,16.10
2016,08,21,07,33,16.10
2016,08,21,07,34,16.10
2016,08,21,07,35,16.20
2016,08,21,07,36,16.20
2016,08,21,07,37,16.20
2016,08,21,07,38,16.20
2016,08,21,07,39,16.30
2016,08,21,07,40,16.30
2016,08,21,07,41,16.30
2016,08,21,07,42,16.30
2016,08,21,07,43,16.30
2016,08,21,07,44,16.30
2016,08,21,07,45,16.30
2016,08,21,07,46,16.30
2016,08,21,07,47,16.30
2016,08,21,07,48,16.30
2016,08,21,07,49,16.30
2016,08,21,07,50,16.30
2016,08,21,07,51,16.30
2016,08,21,07,52,16.40
2016,08,21,07,53,16.40
2016,08,21,07,54,16.40
2016,08,21,07,55,16.40
2016,08,21,07,56,16.40
2016,08,21,07,57,16.40
2016,08,21,07,58,16.40
2016,08,21,07,59,16.40
2016,08,21,08,00,16.50
2016,08,21,08,01,16.50
2016,08,21,08,02,16.50
2016,08,21,08,03,16.60
2016,08,21,08,04,16.60
2016,08,21,08,05,16.60
2016,08,21,08,06,16.70
2016,08,21,08,07,16.70
2016,08,21,08,08,16.70
2016,08,21,08,09,16.80
2016,08,21,08,10,16.80
2016,08,21,08,11,16.80
2016,08,21,08,12,16.80
2016,08,21,08,13,16.90
2016,08,21,08,14,16.90
2016,08,21,08,15,16.90
2016,08,21,08,16,17.00
2016,08,21,08,17,17.00
2016,08,21,08,18,17.10
2016,08,21,08,19,17.10
2016,08,21,08,20,17.10
2016,08,21,08,21,17.10
2016,08,21,08,22,17.20
2016,08,21,08,23,17.20
2016,08,21,08,24,17.30
2016,08,21,08,25,17.30
2016,08,21,08,26,17.30
2016,08,21,08,27,17.40
2016,08,21,08,28,17.40
2016,08,21,08,29,17.50
2016,08,21,08,30,17.50
2016,08,21,08,31,17.50
2016,08,21,08,32,17.60
2016,08,21,08,33,17.60
2016,08,21,08,34,17.70
2016,08,21,08,35,17.70
2016,08,21,08,36,17.70
2016,08,21,08,37,17.80
2016,08,21,08,38,17.80
2016,08,21,08,39,17.80
2016,08,21,08,40,17.80
2016,08,21,08,41,17.80
2016,08,21,08,42,17.90
2016,08,21,08,43,17.90
2016,08,21,08,44,17.90
2016,08,21,08,45,17.90
2016,08,21,08,46,17.90
2016,08,21,08,47,17.90
2016,08,21,08,48,17.90
2016,08,21,08,49,17.90
2016,08,21,08,50,18.00
2016,08,21,08,51,18.00
2016,08,21,08,52,18.00
2016,08,21,08,53,18.10
2016,08,21,08,54,18.10
2016,08,21,08,55,18.10
2016,08,21,08,56,18.10
2016,08,21,08,57,18.20
2016,08,21,08,58,18.20
2016,08,21,08,59,18.20
2016,08,21,09,00,18.20
2016,08,21,09,01,18.30
2016,08,21,09,02,18.30
2016,08,21,09,03,18.30
2016,08,21,09,04,18.30
2016,08,21,09,05,18.40
2016,08,21,09,06,18.40
2016,08,21,09,07,18.40
2016,08,21,09,08,18.40
2016,08,21,09,09,18.40
2016,08,21,09,10,18.30
2016,08,21,09,11,18.30
2016,08,21,09,12,18.20
2016,08,21,09,13,18.20
2016,08,21,09,14,18.10
2016,08,21,09,15,18.00
2016,08,21,09,16,18.00
2016,08,21,09,17,17.90
2016,08,21,09,18,17.90
2016,08,21,09,19,17.90
2016,08,21,09,20,17.80
2016,08,21,09,21,17.80
2016,08,21,09,22,17.80
2016,08,21,09,23,17.80
2016,08,21,09,24,17.90
2016,08,21,09,25,17.90
2016,08,21,09,26,17.90
2016,08,21,09,27,17.90
2016,08,21,09,28,17.90
2016,08,21,09,29,17.90
2016,08,21,09,30,17.90
2016,08,21,09,31,17.90
2016,08,21,09,32,17.90
2016,08,21,09,33,17.90
2016,08,21,09,34,17.90
2016,08,21,09,35,17.80
2016,08,21,09,36,17.80
2016,08,21,09,37,17.80
2016,08,21,09,38,17.70
2016,08,21,09,39,17.70
2016,08,21,09,40,17.60
2016,08,21,09,41,17.50
2016,08,21,09,42,17.50
2016,08,21,09,43,17.40
2016,08,21,09,44,17.40
2016,08,21,09,45,17.30
2016,08,21,09,46,17.30
2016,08,21,09,47,17.20
2016,08,21,09,48,17.10
2016,08,21,09,49,17.00
2016,08,21,09,50,17.00
2016,08,21,09,51,16.90
2016,08,21,09,52,16.80
2016,08,21,09,53,16.70
2016,08,21,09,54,16.70
2016,08,21,09,55,16.70
2016,08,21,09,56,16.60
2016,08,21,09,57,16.70
2016,08,21,09,58,16.70
2016,08,21,09,59,16.70
2016,08,21,10,00,16.70
2016,08,21,10,01,16.80
2016,08,21,10,02,16.80
2016,08,21,10,03,16.90
2016,08,21,10,04,17.00
2016,08,21,10,05,17.10
2016,08,21,10,06,17.10
2016,08,21,10,07,17.20
2016,08,21,10,08,17.30
2016,08,21,10,09,17.30
2016,08,21,10,10,17.40
2016,08,21,10,11,17.40
2016,08,21,10,12,17.50
2016,08,21,10,13,17.60
2016,08,21,10,14,17.70
2016,08,21,10,15,17.80
2016,08,21,10,16,17.90
2016,08,21,10,17,18.00
2016,08,21,10,18,18.00
2016,08,21,10,19,18.10
2016,08,21,10,20,18.10
2016,08,21,10,21,18.20
2016,08,21,10,22,18.20
2016,08,21,10,23,18.30
2016,08,21,10,24,18.30
2016,08,21,10,25,18.30
2016,08,21,10,26,18.30
2016,08,21,10,27,18.30
2016,08,21,10,28,18.30
2016,08,21,10,29,18.30
2016,08,21,10,30,18.30
2016,08,21,10,31,18.20
2016,08,21,10,32,18.00
2016,08,21,10,33,17.90
2016,08,21,10,34,17.80
2016,08,21,10,35,17.70
2016,08,21,10,36,17.70
2016,08,21,10,37,17.70
2016,08,21,10,38,17.60
2016,08,21,10,39,17.60
2016,08,21,10,40,17.60
2016,08,21,10,41,17.60
2016,08,21,10,42,17.60
2016,08,21,10,43,17.60
2016,08,21,10,44,17.50
2016,08,21,10,45,17.50
2016,08,21,10,46,17.50
2016,08,21,10,47,17.50
2016,08,21,10,48,17.40
2016,08,21,10,49,17.40
2016,08,21,10,50,17.30
2016,08,21,10,51,17.30
2016,08,21,10,52,17.20
2016,08,21,10,53,17.20
2016,08,21,10,54,17.20
2016,08,21,10,55,17.10
2016,08,21,10,56,17.10
2016,08,21,10,57,17.10
2016,08,21,10,58,17.10
2016,08,21,10,59,17.10
2016,08,21,11,00,17.10
2016,08,21,11,01,17.10
2016,08,21,11,02,17.10
2016,08,21,11,03,17.10
2016,08,21,11,04,17.10
2016,08,21,11,05,17.10
2016,08,21,11,06,17.10
2016,08,21,11,07,17.20
2016,08,21,11,08,17.20
2016,08,21,11,09,17.20
2016,08,21,11,10,17.20
2016,08,21,11,11,17.20
2016,08,21,11,12,17.20
2016,08,21,11,13,17.30
2016,08,21,11,14,17.30
2016,08,21,11,15,17.30
2016,08,21,11,16,17.40
2016,08,21,11,17,17.40
2016,08,21,11,18,17.50
2016,08,21,11,19,17.60
2016,08,21,11,20,17.60
2016,08,21,11,21,17.70
2016,08,21,11,22,17.70
2016,08,21,11,23,17.80
2016,08,21,11,24,17.80
2016,08,21,11,25,17.80
2016,08,21,11,26,17.80
2016,08,21,11,27,17.80
2016,08,21,11,28,17.70
2016,08,21,11,29,17.70
2016,08,21,11,30,17.60
2016,08,21,11,31,17.60
2016,08,21,11,32,17.50
2016,08,21,11,33,17.50
2016,08,21,11,34,17.40
2016,08,21,11,35,17.50
2016,08,21,11,36,17.50
2016,08,21,11,37,17.60
2016,08,21,11,38,17.70
2016,08,21,11,39,17.80
2016,08,21,11,40,17.90
2016,08,21,11,41,18.00
2016,08,21,11,42,18.10
2016,08,21,11,43,18.10
2016,08,21,11,44,18.20
2016,08,21,11,45,18.20
2016,08,21,11,46,18.20
2016,08,21,11,47,18.20
2016,08,21,11,48,18.30
2016,08,21,11,49,18.30
2016,08,21,11,50,18.30
2016,08,21,11,51,18.40
2016,08,21,11,52,18.40
2016,08,21,11,53,18.50
2016,08,21,11,54,18.50
2016,08,21,11,55,18.60
2016,08,21,11,56,18.70
2016,08,21,11,57,18.80
2016,08,21,11,58,18.90
2016,08,21,11,59,18.90
2016,08,21,12,00,18.90
2016,08,21,12,01,18.90
2016,08,21,12,02,18.80
2016,08,21,12,03,18.80
2016,08,21,12,04,18.70
2016,08,21,12,05,18.70
2016,08,21,12,06,18.60
2016,08,21,12,07,18.60
2016,08,21,12,08,18.50
2016,08,21,12,09,18.50
2016,08,21,12,10,18.40
2016,08,21,12,11,18.40
2016,08,21,12,12,18.40
2016,08,21,12,13,18.40
2016,08,21,12,14,18.40
2016,08,21,12,15,18.50
2016,08,21,12,16,18.50
2016,08,21,12,17,18.60
2016,08,21,12,18,18.60
2016,08,21,12,19,18.60
2016,08,21,12,20,18.70
2016,08,21,12,21,18.70
2016,08,21,12,22,18.70
2016,08,21,12,23,18.70
2016,08,21,12,24,18.80
2016,08,21,12,25,18.80
2016,08,21,12,26,18.80
2016,08,21,12,27,18.80
2016,08,21,12,28,18.90
2016,08,21,12,29,18.90
2016,08,21,12,30,19.00
2016,08,21,12,31,19.00
2016,08,21,12,32,19.00
2016,08,21,12,33,19.00
2016,08,21,12,34,19.00
2016,08,21,12,35,19.00
2016,08,21,12,36,19.00
2016,08,21,12,37,19.00
2016,08,21,12,38,19.00
2016,08,21,12,39,18.90
2016,08,21,12,40,18.90
2016,08,21,12,41,18.90
2016,08,21,12,42,18.90
2016,08,21,12,43,18.90
2016,08,21,12,44,18.90
2016,08,21,12,45,18.90
2016,08,21,12,46,18.90
2016,08,21,12,47,18.90
2016,08,21,12,48,18.90
2016,08,21,12,49,19.00
2016,08,21,12,50,19.00
2016,08,21,12,51,19.10
2016,08,21,12,52,19.10
2016,08,21,12,53,19.20
2016,08,21,12,54,19.10
2016,08,21,12,55,19.10
2016,08,21,12,56,19.10
2016,08,21,12,57,19.20
2016,08,21,12,58,19.30
2016,08,21,12,59,19.40
2016,08,21,13,00,19.50
2016,08,21,13,01,19.50
2016,08,21,13,02,19.50
2016,08,21,13,03,19.40
2016,08,21,13,04,19.30
2016,08,21,13,05,19.20
2016,08,21,13,06,19.10
2016,08,21,13,07,19.10
2016,08,21,13,08,19.20
2016,08,21,13,09,19.30
2016,08,21,13,10,19.40
2016,08,21,13,11,19.50
2016,08,21,13,12,19.70
2016,08,21,13,13,19.90
2016,08,21,13,14,20.10
2016,08,21,13,15,20.30
2016,08,21,13,16,20.60
2016,08,21,13,17,20.70
2016,08,21,13,18,20.80
2016,08,21,13,19,20.80
2016,08,21,13,20,20.70
2016,08,21,13,21,20.50
2016,08,21,13,22,20.40
2016,08,21,13,23,20.30
2016,08,21,13,24,20.20
2016,08,21,13,25,20.10
2016,08,21,13,26,20.00
2016,08,21,13,27,19.90
2016,08,21,13,28,19.80
2016,08,21,13,29,19.70
2016,08,21,13,30,19.70
2016,08,21,13,31,19.70
2016,08,21,13,32,19.70
2016,08,21,13,33,19.80
2016,08,21,13,34,19.80
2016,08,21,13,35,19.90
2016,08,21,13,36,20.00
2016,08,21,13,37,20.10
2016,08,21,13,38,20.20
2016,08,21,13,39,20.20
2016,08,21,13,40,20.20
2016,08,21,13,41,20.20
2016,08,21,13,42,20.20
2016,08,21,13,43,20.10
2016,08,21,13,44,20.10
2016,08,21,13,45,20.10
2016,08,21,13,46,20.00
2016,08,21,13,47,20.00
2016,08,21,13,48,20.00
2016,08,21,13,49,20.10
2016,08,21,13,50,20.10
2016,08,21,13,51,20.10
2016,08,21,13,52,20.10
2016,08,21,13,53,20.10
2016,08,21,13,54,20.10
2016,08,21,13,55,20.10
2016,08,21,13,56,20.10
2016,08,21,13,57,20.00
2016,08,21,13,58,20.00
2016,08,21,13,59,20.00
2016,08,21,14,00,20.00
2016,08,21,14,01,19.90
2016,08,21,14,02,19.90
2016,08,21,14,03,20.00
2016,08,21,14,04,20.00
2016,08,21,14,05,20.10
2016,08,21,14,06,20.10
2016,08,21,14,07,20.20
2016,08,21,14,08,20.30
2016,08,21,14,09,20.50
2016,08,21,14,10,20.70
2016,08,21,14,11,20.90
2016,08,21,14,12,21.20
2016,08,21,14,13,21.40
2016,08,21,14,14,21.50
2016,08,21,14,15,21.60
2016,08,21,14,16,21.60
2016,08,21,14,17,21.60
2016,08,21,14,18,21.60
2016,08,21,14,19,21.60
2016,08,21,14,20,21.80
2016,08,21,14,21,21.90
2016,08,21,14,22,22.00
2016,08,21,14,23,22.00
2016,08,21,14,24,22.10
2016,08,21,14,25,22.10
2016,08,21,14,26,22.20
2016,08,21,14,27,22.30
2016,08,21,14,28,22.30
2016,08,21,14,29,22.40
2016,08,21,14,30,22.40
2016,08,21,14,31,22.40
2016,08,21,14,32,22.50
2016,08,21,14,33,22.50
2016,08,21,14,34,22.50
2016,08,21,14,35,22.40
2016,08,21,14,36,22.30
2016,08,21,14,37,22.30
2016,08,21,14,38,22.30
2016,08,21,14,39,22.30
2016,08,21,14,40,22.30
2016,08,21,14,41,22.40
2016,08,21,14,42,22.50
2016,08,21,14,43,22.50
2016,08,21,14,44,22.60
2016,08,21,14,45,22.60
2016,08,21,14,46,22.60
2016,08,21,14,47,22.60
2016,08,21,14,48,22.50
2016,08,21,14,49,22.40
2016,08,21,14,50,22.30
2016,08,21,14,51,22.30
2016,08,21,14,52,22.30
2016,08,21,14,53,22.30
2016,08,21,14,54,22.30
2016,08,21,14,55,22.30
2016,08,21,14,56,22.30
2016,08,21,14,57,22.30
2016,08,21,14,58,22.30
2016,08,21,14,59,22.40
2016,08,21,15,00,22.40
2016,08,21,15,01,22.50
2016,08,21,15,02,22.60
2016,08,21,15,03,22.70
2016,08,21,15,04,22.70
2016,08,21,15,05,22.70
2016,08,21,15,06,22.60
2016,08,21,15,07,22.60
2016,08,21,15,08,22.60
2016,08,21,15,09,22.60
2016,08,21,15,10,22.50
2016,08,21,15,11,22.50
2016,08,21,15,12,22.50
2016,08,21,15,13,22.40
2016,08,21,15,14,22.50
2016,08,21,15,15,22.50
2016,08,21,15,16,22.50
2016,08,21,15,17,22.60
2016,08,21,15,18,22.60
2016,08,21,15,19,22.60
2016,08,21,15,20,22.50
2016,08,21,15,21,22.50
2016,08,21,15,22,22.50
2016,08,21,15,23,22.50
2016,08,21,15,24,22.50
2016,08,21,15,25,22.50
2016,08,21,15,26,22.50
2016,08,21,15,27,22.40
2016,08,21,15,28,22.40
2016,08,21,15,29,22.40
2016,08,21,15,30,22.40
2016,08,21,15,31,22.50
2016,08,21,15,32,22.50
2016,08,21,15,33,22.60
2016,08,21,15,34,22.60
2016,08,21,15,35,22.60
2016,08,21,15,36,22.70
2016,08,21,15,37,22.70
2016,08,21,15,38,22.70
2016,08,21,15,39,22.60
2016,08,21,15,40,22.60
2016,08,21,15,41,22.50
2016,08,21,15,42,22.50
2016,08,21,15,43,22.40
2016,08,21,15,44,22.40
2016,08,21,15,45,22.40
2016,08,21,15,46,22.40
2016,08,21,15,47,22.40
2016,08,21,15,48,22.30
2016,08,21,15,49,22.30
2016,08,21,15,50,22.30
2016,08,21,15,51,22.30
2016,08,21,15,52,22.30
2016,08,21,15,53,22.30
2016,08,21,15,54,22.40
2016,08,21,15,55,22.40
2016,08,21,15,56,22.40
2016,08,21,15,57,22.30
2016,08,21,15,58,22.30
2016,08,21,15,59,22.30
2016,08,21,16,00,22.30
2016,08,21,16,01,22.30
2016,08,21,16,02,22.40
2016,08,21,16,03,22.30
2016,08,21,16,04,22.30
2016,08,21,16,05,22.30
2016,08,21,16,06,22.30
2016,08,21,16,07,22.30
2016,08,21,16,08,22.30
2016,08,21,16,09,22.30
2016,08,21,16,10,22.40
2016,08,21,16,11,22.50
2016,08,21,16,12,22.50
2016,08,21,16,13,22.60
2016,08,21,16,14,22.60
2016,08,21,16,15,22.60
2016,08,21,16,16,22.60
2016,08,21,16,17,22.60
2016,08,21,16,18,22.50
2016,08,21,16,19,22.40
2016,08,21,16,20,22.40
2016,08,21,16,21,22.40
2016,08,21,16,22,22.40
2016,08,21,16,23,22.50
2016,08,21,16,24,22.50
2016,08,21,16,25,22.60
2016,08,21,16,26,22.50
2016,08,21,16,27,22.50
2016,08,21,16,28,22.40
2016,08,21,16,29,22.40
2016,08,21,16,30,22.30
2016,08,21,16,31,22.30
2016,08,21,16,32,22.20
2016,08,21,16,33,22.20
2016,08,21,16,34,22.20
2016,08,21,16,35,22.10
2016,08,21,16,36,22.20
2016,08,21,16,37,22.20
2016,08,21,16,38,22.20
2016,08,21,16,39,22.30
2016,08,21,16,40,22.30
2016,08,21,16,41,22.20
2016,08,21,16,42,22.20
2016,08,21,16,43,22.10
2016,08,21,16,44,22.10
2016,08,21,16,45,22.00
2016,08,21,16,46,22.00
2016,08,21,16,47,21.90
2016,08,21,16,48,21.90
2016,08,21,16,49,21.90
2016,08,21,16,50,21.90
2016,08,21,16,51,21.90
2016,08,21,16,52,21.90
2016,08,21,16,53,21.90
2016,08,21,16,54,21.80
2016,08,21,16,55,21.70
2016,08,21,16,56,21.60
2016,08,21,16,57,21.40
2016,08,21,16,58,21.30
2016,08,21,16,59,21.00
2016,08,21,17,00,20.80
2016,08,21,17,01,20.70
2016,08,21,17,02,20.50
2016,08,21,17,03,20.40
2016,08,21,17,04,20.20
2016,08,21,17,05,20.10
2016,08,21,17,06,20.00
2016,08,21,17,07,19.90
2016,08,21,17,08,19.90
2016,08,21,17,09,19.90
2016,08,21,17,10,19.90
2016,08,21,17,11,19.90
2016,08,21,17,12,19.90
2016,08,21,17,13,20.00
2016,08,21,17,14,20.00
2016,08,21,17,15,20.00
2016,08,21,17,16,20.00
2016,08,21,17,17,20.00
2016,08,21,17,18,20.00
2016,08,21,17,19,20.10
2016,08,21,17,20,20.20